Kelso-Longview, WA
on Monday, December 17, 2012

Monday
Previous Day Next Day
Daily Summary
 ActualAverage (KSPB)Record (KSPB)
Temperature
Mean Temperature °F °F  
Max Temperature 48°F °F 55°F (1999)
Min Temperature 35°F °F 19°F (2005)
Degree Days
Heating Degree Days 24    
Month to date heating degree days  
Since 1 July heating degree days  
Cooling Degree Days 0    
Month to date cooling degree days  
Year to date cooling degree days  
Moisture
Dew Point 35°F   
Average Humidity 80    
Maximum Humidity 93    
Minimum Humidity 70    
Precipitation
Precipitation 0.55 in in 0.65 in (2012)
Month to date precipitation  
Year to date precipitation  
Wind
Wind Speed 10 mph   
Max Wind Speed 18 mph   
Max Gust Speed 31 mph   
Visibility 10 miles   
Events     

Key: T is trace of precipitation, MM is missing value
Source: NWS Daily Summary
Time(PST)TemperatureDew PointHumidity Pressure Visibility Wind DirectionWind SpeedGust SpeedPrecipitationEvents Conditions
12:15 AM 48.2°F 41.0°F 76% 29.10 in 10.0 miles South 12.7 mph 20.7 mph N/A   Overcast
12:35 AM 46.4°F 39.2°F 76% 29.09 in 10.0 miles SSE 11.5 mph 20.7 mph N/A   Overcast
12:55 AM 46.4°F 39.2°F 76% 29.10 in 9.0 miles SSE 18.4 mph 31.1 mph 0.02 in   Overcast
1:15 AM 46.4°F 39.2°F 76% 29.12 in 9.0 miles SSE 13.8 mph 23.0 mph 0.04 in   Overcast
1:35 AM 46.4°F 39.2°F 76% 29.14 in 7.0 miles SSE 11.5 mph 21.9 mph 0.05 in   Overcast
1:55 AM 46.4°F 39.2°F 76% 29.14 in 5.0 miles SSE 15.0 mph 28.8 mph 0.07 in   Mostly Cloudy
2:15 AM 44.6°F 39.2°F 81% 29.16 in 9.0 miles South 13.8 mph 21.9 mph 0.03 in   Overcast
2:35 AM 46.4°F 41.0°F 81% 29.23 in 7.0 miles SW 11.5 mph 26.5 mph 0.08 in   Mostly Cloudy
2:55 AM 44.6°F 39.2°F 81% 29.28 in 5.0 miles West 18.4 mph 27.6 mph 0.10 in   Overcast
3:15 AM 44.6°F 37.4°F 76% 29.30 in 10.0 miles WSW 12.7 mph 21.9 mph 0.02 in   Overcast
3:35 AM 44.6°F 37.4°F 76% 29.33 in 10.0 miles SW 10.4 mph 19.6 mph 0.03 in   Overcast
3:55 AM 44.6°F 37.4°F 76% 29.35 in 9.0 miles WSW 16.1 mph 28.8 mph 0.05 in   Overcast
4:15 AM 44.6°F 37.4°F 76% 29.37 in 10.0 miles SW 11.5 mph 20.7 mph 0.01 in   Overcast
4:35 AM 44.6°F 37.4°F 76% 29.40 in 10.0 miles West 8.1 mph 19.6 mph 0.01 in   Overcast
4:55 AM 44.6°F 37.4°F 76% 29.41 in 10.0 miles South 5.8 mph - 0.02 in   Overcast
5:15 AM 44.6°F 37.4°F 76% 29.43 in 10.0 miles South 6.9 mph - N/A   Overcast
5:35 AM 42.8°F 37.4°F 81% 29.46 in 9.0 miles SW 10.4 mph 20.7 mph 0.02 in   Overcast
5:55 AM 42.8°F 37.4°F 81% 29.49 in 9.0 miles SW 12.7 mph 18.4 mph 0.06 in   Overcast
6:15 AM 42.8°F 37.4°F 81% 29.52 in 10.0 miles West 11.5 mph 27.6 mph 0.03 in   Overcast
6:35 AM 42.8°F 37.4°F 81% 29.53 in 10.0 miles WSW 12.7 mph 20.7 mph 0.05 in   Overcast
6:55 AM 42.8°F 37.4°F 81% 29.55 in 9.0 miles WSW 8.1 mph 19.6 mph 0.06 in   Overcast
7:15 AM 42.8°F 37.4°F 81% 29.57 in 8.0 miles WSW 6.9 mph 16.1 mph 0.01 in   Overcast
7:35 AM 42.8°F 35.6°F 76% 29.60 in 10.0 miles SW 5.8 mph - 0.03 in   Overcast
7:55 AM 42.8°F 35.6°F 76% 29.61 in 10.0 miles WSW 9.2 mph - 0.04 in   Overcast
8:15 AM 42.8°F 35.6°F 76% 29.64 in 8.0 miles West 11.5 mph 23.0 mph 0.01 in   Overcast
8:35 AM 41.0°F 35.6°F 81% 29.64 in 10.0 miles WSW 8.1 mph 23.0 mph 0.02 in   Mostly Cloudy
8:55 AM 42.8°F 35.6°F 76% 29.66 in 10.0 miles South 9.2 mph - 0.02 in   Overcast
9:15 AM 42.8°F 35.6°F 76% 29.68 in 10.0 miles South 5.8 mph - N/A   Scattered Clouds
9:35 AM 42.8°F 35.6°F 76% 29.71 in 9.0 miles West 8.1 mph - N/A   Mostly Cloudy
9:55 AM 42.8°F 33.8°F 70% 29.71 in 10.0 miles SSW 5.8 mph - 0.01 in   Mostly Cloudy
10:15 AM 42.8°F 35.6°F 76% 29.72 in 10.0 miles South 6.9 mph - N/A   Mostly Cloudy
10:35 AM 42.8°F 35.6°F 76% 29.74 in 10.0 miles South 9.2 mph - N/A   Mostly Cloudy
10:55 AM 42.8°F 33.8°F 70% 29.76 in 10.0 miles SSW 9.2 mph - N/A   Mostly Cloudy
11:15 AM 42.8°F 35.6°F 76% 29.77 in 10.0 miles South 9.2 mph - N/A   Mostly Cloudy
11:35 AM 42.8°F 33.8°F 70% 29.79 in 10.0 miles SW 9.2 mph 17.3 mph N/A   Overcast
11:55 AM 41.0°F 33.8°F 76% 29.78 in 10.0 miles SW 3.5 mph - N/A   Mostly Cloudy
12:15 PM 42.8°F 33.8°F 70% 29.79 in 9.0 miles WSW 9.2 mph 18.4 mph N/A   Overcast
12:35 PM 41.0°F 33.8°F 76% 29.80 in 10.0 miles Calm Calm - N/A   Overcast
12:55 PM 42.8°F 35.6°F 76% 29.79 in 10.0 miles South 9.2 mph - N/A   Overcast
1:15 PM 42.8°F 33.8°F 70% 29.81 in 10.0 miles West 4.6 mph - N/A   Overcast
1:35 PM 37.4°F 32.0°F 81% 29.82 in 10.0 miles WNW 5.8 mph - 0.02 in   Overcast
1:55 PM 39.2°F 32.0°F 75% 29.82 in 10.0 miles Calm Calm - 0.02 in   Mostly Cloudy
4:35 PM 37.4°F 32.0°F 81% 29.90 in 10.0 miles Calm Calm - 0.03 in   Mostly Cloudy
4:55 PM 37.4°F 33.8°F 87% 29.90 in 10.0 miles Calm Calm - 0.03 in   Mostly Cloudy
5:15 PM 37.4°F 32.0°F 81% 29.91 in 10.0 miles South 8.1 mph - 0.01 in   Overcast
5:35 PM 37.4°F 32.0°F 81% 29.92 in 10.0 miles South 4.6 mph - 0.02 in   Mostly Cloudy
5:55 PM 37.4°F 30.2°F 75% 29.92 in 10.0 miles SE 3.5 mph - 0.02 in   Scattered Clouds
6:15 PM 35.6°F 32.0°F 87% 29.93 in 10.0 miles SSE 6.9 mph - N/A   Mostly Cloudy
6:35 PM 37.4°F 32.0°F 81% 29.93 in 10.0 miles SSE 11.5 mph - N/A   Mostly Cloudy
6:55 PM 35.6°F 32.0°F 87% 29.93 in 10.0 miles SSE 10.4 mph 17.3 mph N/A   Mostly Cloudy
7:15 PM 35.6°F 32.0°F 87% 29.93 in 10.0 miles SSE 9.2 mph - N/A   Overcast
7:35 PM 35.6°F 32.0°F 87% 29.93 in 10.0 miles SSE 10.4 mph - N/A   Mostly Cloudy
7:55 PM 35.6°F 32.0°F 87% 29.94 in 10.0 miles SSE 10.4 mph - N/A   Mostly Cloudy
8:15 PM 35.6°F 32.0°F 87% 29.94 in 10.0 miles SSE 11.5 mph - N/A   Overcast
8:35 PM 35.6°F 32.0°F 87% 29.95 in 10.0 miles SE 11.5 mph - 0.01 in   Mostly Cloudy
8:55 PM 35.6°F 32.0°F 87% 29.95 in 10.0 miles SE 8.1 mph - 0.01 in   Overcast
9:15 PM 35.6°F 32.0°F 87% 29.95 in 10.0 miles SE 6.9 mph - N/A   Mostly Cloudy
9:35 PM 35.6°F 32.0°F 87% 29.96 in 10.0 miles SSE 6.9 mph - N/A   Overcast
9:55 PM 35.6°F 33.8°F 93% 29.96 in 10.0 miles SE 9.2 mph - N/A   Mostly Cloudy
10:15 PM 35.6°F 32.0°F 87% 29.96 in 10.0 miles SSE 8.1 mph - 0.01 in   Overcast
10:35 PM 35.6°F 32.0°F 87% 29.96 in 10.0 miles SSE 8.1 mph - 0.01 in   Mostly Cloudy
10:55 PM 35.6°F 32.0°F 87% 29.97 in 10.0 miles SSE 8.1 mph - 0.01 in   Mostly Cloudy
11:15 PM 35.6°F 32.0°F 87% 29.97 in 10.0 miles SSE 9.2 mph - 0.01 in   Overcast
11:35 PM 35.6°F 32.0°F 87% 29.97 in 10.0 miles SE 9.2 mph - 0.01 in   Overcast
11:55 PM 35.6°F 32.0°F 87% 29.97 in 10.0 miles SE 6.9 mph - 0.01 in   Overcast
Moon Phase
Dec. 17 Dec. 20 Dec. 28 Jan. 04 Jan. 11
Sunrise:07:49 AM (PST) Moon Rise:10:46 AM (PST)12/17
Sunset:04:27 PM (PST) Moon Set:10:10 PM (PST)12/17

Copyright © 2014 The Weather Underground, Inc.